sat.trackr.live / text

‹ back to catalog

STARLINK-36081

NORAD 67498 · 2026-012F

PAYLOAD ACTIVE UNKNOWN

§ Identity

Operator
Country
US
Launch date
2026-01-18
Launch site
AFETR
Launch vehicle
Mass (kg)
RCS (m²)

Purposes: comms

External: N2YO · Heavens-Above · Gunter

§ Orbital elements

Epoch: 2026-09-19T10:50:09.403872Z

Period
94.27 min
Inclination
43.0014°
Eccentricity
0.0002084
Mean motion
15.27584397 rev/d
Perigee alt
481.6 km
Apogee alt
484.5 km
Semi-major
6,861.2 km
B*
4.0330e-4
RAAN
300.2870°
Arg perigee
275.4611°
Mean anomaly
84.6003°
Rev number
3,739

§ Raw data

STARLINK-360811 67498U 26012F   26262.45149773  .00010854  00000+0  40330-3 0  99932 67498  43.0014 300.2870 0002084 275.4611  84.6003 15.27584397 37392

JSON: /api/v1/satellites/67498 · /tle

For live sub-satellite position, see the globe view (requires WebGL).

§ Visibility from observer

Set your observer location to see the next 7 days of passes ≥ 10°. The values pass through the URL so the page stays shareable.

No JS? Fill the form by hand. The geolocation button needs JavaScript.